FW0887 Weather Reports


time (UTC)temp
C
wind
direction
speed
KPH
gust
KPH
rain 1hr
cm
rain 24hr
cm
rain mn
cm
humidity
%
barometer
mb
20260506204505 11 215 0.0 0.0 0.28 0.94 0.94 90 1007.5
20260506203011 11 215 0.0 0.0 0.38 0.91 0.91 90 1007.7
20260506202200 12 0.0 0.0 0.48 0.89 0.89 90 1008.2
20260506201504 11 214 0.0 1.6 0.51 0.91 0.91 90 1007.7
20260506200005 11 215 1.6 4.8 0.43 0.79 0.79 90 1007.8
20260506194503 11 211 1.6 8.0 0.30 0.66 0.66 89 1007.5
20260506193059 12 287 0.0 4.8 0.20 0.56 0.56 89 1006.9
20260506192400 12 293 1.6 4.8 0.05 0.43 0.43 89 1006.9
20260506191600 12 267 1.6 11.3 0.08 0.43 0.43 89 1006.6
20260506190059 12 224 4.8 9.7 0.00 0.36 0.36 88 1006.0
20260506184657 12 60 0.0 3.2 0.00 0.38 0.36 88 1005.6
20260506183100 12 44 0.0 4.8 0.03 0.38 0.36 88 1005.3
20260506182332 12 45 4.8 6.4 0.18 0.38 0.36 87 1005.4
20260506181556 12 42 1.6 6.4 0.13 0.38 0.36 88 1004.9
20260506180055 12 49 3.2 6.4 0.36 0.38 0.36 87 1004.9
20260506174601 12 43 3.2 8.0 0.36 2.59 0.36 85 1005.0
20260506173125 12 288 3.2 12.9 0.33 2.57 0.33 82 1005.7
20260506172121 13 338 6.4 16.1 0.28 1.45 0.28 78 1005.4
20260506172058 15 293 9.7 16.1 0.08 2.31 0.08 73 1005.4
20260506171553 14 253 6.4 19.3 0.23 2.44 0.23 77 1005.1
20260506170052 17 310 0.0 3.2 0.00 2.21 0.00 70 1004.3
20260506164552 17 315 0.0 6.4 0.00 2.21 0.00 66 1003.9
20260506163054 17 275 1.6 4.8 0.00 2.21 0.00 65 1003.8
20260506162457 18 293 1.6 3.2 0.00 2.21 0.00 65 1004.7
20260506161550 18 286 0.0 3.2 0.00 2.21 0.00 64 1004.0
20260506160048 18 30 0.0 6.4 0.00 2.21 0.00 64 1004.0
20260506154548 18 55 0.0 9.7 0.00 2.21 0.00 64 1004.2
20260506153047 18 40 0.0 4.8 0.00 2.21 0.00 63 1004.2
20260506152127 19 293 1.6 4.8 0.00 2.21 0.00 61 1005.2
20260506151545 19 269 0.0 4.8 0.00 2.21 0.00 61 1004.2
20260506150053 19 206 1.6 3.2 0.00 2.21 0.00 63 1004.4
20260506144559 19 205 1.6 4.8 0.00 2.21 0.00 60 1004.4
20260506143051 19 206 0.0 3.2 0.00 2.21 0.00 62 1004.5
20260506142445 20 203 3.2 4.8 0.00 2.21 0.00 59 1005.5
20260506141540 19 204 1.6 6.4 0.00 2.21 0.00 60 1004.4
20260506140055 20 187 0.0 4.8 0.00 2.21 0.00 63 1004.6
20260506134538 20 187 0.0 4.8 0.00 2.21 0.00 58 1004.7
20260506133034 20 188 1.6 8.0 0.00 2.21 0.00 60 1004.7
20260506132248 19 203 1.6 3.2 0.00 2.21 0.00 66 1005.9
20260506131538 19 205 1.6 9.7 0.00 2.21 0.00 66 1005.0
20260506130028 19 227 4.8 9.7 0.00 2.21 0.00 63 1005.2
20260506124525 18 254 1.6 4.8 0.00 2.21 0.00 67 1005.4
20260506123034 17 232 1.6 8.0 0.00 2.21 0.00 65 1005.6
20260506122015 18 225 1.6 4.8 0.00 2.21 0.00 67 1006.5
20260506121521 17 218 3.2 6.4 0.00 2.21 0.00 68 1005.6
20260506120028 17 149 1.6 6.4 0.00 2.21 0.00 67 1005.6
20260506114521 18 215 4.8 9.7 0.00 2.21 0.00 67 1005.8
20260506113017 17 207 1.6 8.0 0.00 2.21 0.00 68 1005.8
20260506112314 17 203 4.8 6.4 0.00 2.21 0.00 69 1006.9
20260506111514 17 193 4.8 9.7 0.00 2.21 0.00 69 1006.0
20260506110014 17 204 1.6 11.3 0.00 2.21 0.00 69 1006.1
20260506104522 17 143 1.6 8.0 0.00 2.21 0.00 68 1006.3
20260506103012 17 171 3.2 11.3 0.00 2.21 0.00 70 1006.2
20260506102305 17 225 3.2 4.8 0.00 2.21 0.00 72 1007.3
20260506101508 17 192 1.6 9.7 0.00 2.21 0.00 72 1006.5
20260506100015 16 214 0.0 11.3 0.00 2.21 0.00 72 1006.6
20260506094506 16 232 3.2 11.3 0.00 2.21 0.00 77 1006.7
20260506093001 16 231 3.2 8.0 0.00 2.21 0.00 77 1006.6
20260506092249 15 158 1.6 4.8 0.00 2.21 0.00 76 1007.3
20260506091557 15 207 0.0 6.4 0.00 2.21 0.00 77 1006.7
20260506090056 15 175 1.6 4.8 0.00 2.21 0.00 76 1006.7
20260506084558 15 221 1.6 9.7 0.00 2.21 0.00 78 1006.8
20260506083056 14 182 1.6 6.4 0.00 2.21 0.00 80 1006.8
20260506082304 14 158 3.2 8.0 0.00 2.21 0.00 83 1007.4
20260506081603 14 165 1.6 6.4 0.00 2.21 0.00 81 1006.8
20260506073041 12 179 0.0 4.8 0.00 2.21 0.00 87 1006.6
20260506071949 12 180 1.6 3.2 0.00 2.21 0.00 89 1007.0
20260506071542 12 182 0.0 4.8 0.00 2.21 0.00 89 1006.5
20260506062349 11 0.0 3.2 0.00 2.21 0.00 91 1007.0
20260506044533 10 197 1.6 6.4 0.00 2.21 0.00 92 1006.5
20260506043023 10 198 0.0 4.8 0.00 2.21 0.00 92 1006.4
20260506042153 11 0.0 1.6 0.00 2.21 0.00 92 1007.5
20260506041522 10 197 0.0 8.0 0.00 2.21 0.00 92 1006.4
20260506040022 10 212 0.0 6.4 0.00 2.21 0.00 92 1006.1
20260506034522 10 211 0.0 3.2 0.00 2.21 0.00 92 1006.2
20260506033027 10 211 0.0 3.2 0.00 2.21 0.00 92 1006.3
20260506032226 11 203 3.2 4.8 0.00 2.21 0.00 92 1007.6
20260506031538 10 211 1.6 4.8 0.00 2.21 0.00 92 1006.2
20260506030021 10 209 1.6 4.8 0.00 2.21 0.00 92 1006.5
20260506024526 10 209 0.0 1.6 0.00 2.21 0.00 91 1006.5
20260506023018 10 209 0.0 1.6 0.00 2.21 0.00 91 1006.4
20260506022157 10 203 1.6 3.2 0.00 2.21 0.00 91 1007.7
20260506021518 10 209 0.0 4.8 0.00 2.21 0.00 91 1006.5
20260506020017 10 209 0.0 8.0 0.00 2.21 0.00 91 1006.3
20260506014514 11 206 0.0 6.4 0.00 2.21 0.00 92 1006.2
20260506013017 11 206 0.0 3.2 0.00 2.21 0.00 91 1006.4
20260506012252 11 203 1.6 3.2 0.00 2.21 0.00 91 1007.8
20260506011517 11 206 0.0 4.8 0.00 2.21 0.00 91 1006.4
20260506010029 11 206 0.0 3.2 0.00 2.21 0.00 91 1006.5
20260506004509 11 222 0.0 3.2 0.00 2.21 0.00 91 1006.6
20260506003009 11 222 1.6 4.8 0.00 2.21 0.00 91 1006.5
20260506002217 11 0.0 1.6 0.00 2.21 0.00 91 1007.9
20260506001507 11 236 0.0 4.8 0.00 2.21 0.00 91 1006.6
20260506000005 11 236 0.0 3.2 0.00 2.21 0.00 91 1006.7
20260505234503 11 236 0.0 1.6 0.00 2.21 0.00 91 1006.8
20260505233002 12 236 0.0 6.4 0.00 2.21 0.00 91 1007.0
20260505231858 12 0.0 0.0 0.00 2.21 0.00 91 1008.2
20260505231854 12 0.0 1.6 0.00 2.21 0.00 91 1008.3
20260505231600 12 236 0.0 3.2 0.00 2.21 0.00 91 1006.9
20260505230100 12 236 0.0 3.2 0.00 2.21 0.00 91 1006.9
20260505224558 12 236 1.6 6.4 0.00 2.21 0.00 91 1007.0
20260505223057 12 265 0.0 3.2 0.00 2.21 0.00 91 1006.9
20260505222153 12 315 1.6 3.2 0.00 2.21 0.00 90 1008.0
20260505221556 12 313 1.6 4.8 0.00 2.21 0.00 90 1006.9
20260505220053 12 323 0.0 1.6 0.00 2.21 0.00 90 1006.7
20260505214609 12 323 0.0 0.0 0.00 2.21 2.21 89 1006.5
20260505213050 12 323 1.6 3.2 0.00 2.21 2.21 90 1006.7
20260505212125 12 0.0 1.6 0.00 2.21 2.21 89 1007.9
20260505211549 12 327 0.0 1.6 0.00 2.21 2.21 89 1006.7
20260505210048 12 327 0.0 1.6 0.00 2.21 2.21 89 1006.9